Las Vegas, NV

6:59 PM PDT on July 23, 2017 (GMT -0700)
McCarran International

Weather History for KLAS - July, 2013

Change the Weather History Date:

Wednesday, July 24, 2013

  Actual Average Record
Temperature  
Mean Temperature 95 °F 93 °F  
Max Temperature 106 °F 105 °F 117 °F (1942)
Min Temperature 83 °F 82 °F 64 °F (1957)
Degree Days  
Heating Degree Days 0 0  
Month to date heating degree days 0 0  
Since 1 June heating degree days 0 1  
Since 1 July heating degree days 0 0  
Cooling Degree Days 30 28  
Month to date cooling degree days 727 659  
Year to date cooling degree days 2221 1859  
Since 1 June cooling degree days 1531 1309  
Growing Degree Days 44 (Base 50)    
Moisture  
Dew Point 55 °F    
Average Humidity 33    
Maximum Humidity 51    
Minimum Humidity 15    
Precipitation  
Precipitation 0.00 in 0.01 in 1.32 in (1956)
Month to date precipitation 0.30 0.28  
Year to date precipitation 0.91 2.36  
Snow  
Snow 0.00 in 0.00 in 0.00 in ()
Month to date snowfall 0.0 0.0  
Since 1 June snowfall 0.0 0.0  
Since 1 July snowfall 0.0 0.0  
Snow Depth 0.00 in    
Sea Level Pressure  
Sea Level Pressure 29.75 in    
Wind  
Wind Speed 8 mph (SSW)    
Max Wind Speed 15 mph    
Max Gust Speed 21 mph    
Visibility 10 miles    
Events      
T = Trace of Precipitation, MM = Missing Value Source: NWS Daily Summary

Daily Weather History Graph

Daily Weather History Graph

Search for Another Location

Airport or City:

Trip Planner

Search our weather history database for the weather conditions in past years. The results will help you decide how hot, cold, wet, or windy it might be!

Date:

Astronomy

Jul. 24, 2013 Rise Set
Actual Time 5:41 AM PDT 7:51 PM PDT
Civil Twilight 5:12 AM PDT 8:20 PM PDT
Nautical Twilight 4:37 AM PDT 8:55 PM PDT
Astronomical Twilight 3:59 AM PDT 9:34 PM PDT
Moon 9:07 PM PDT 8:00 AM PDT
Length of Visible Light 15h 07m
Length of Day
14h 10m
Waning Gibbous, 94% of the Moon is Illuminated
Jul 24
Waning Gibbous
Jul 29
Last Quarter
Aug 6
New
Aug 14
First Quarter
Aug 20
Full

Hourly Weather History & Observations

Time (PDT) Temp. Heat Index Dew Point Humidity Pressure Visibility Wind Dir Wind Speed Gust Speed Precip Events Conditions
12:56 AM 87.1 °F 86.1 °F 57.9 °F 37% 29.78 in 10.0 mi SSW 9.2 mph - N/A   Partly Cloudy
1:56 AM 86.0 °F 86.1 °F 61.0 °F 43% 29.76 in 10.0 mi South 4.6 mph - N/A   Partly Cloudy
2:56 AM 84.9 °F 84.8 °F 60.1 °F 43% 29.77 in 10.0 mi SSW 8.1 mph - N/A   Partly Cloudy
3:56 AM 84.0 °F 84.4 °F 61.0 °F 46% 29.78 in 10.0 mi South 6.9 mph - N/A   Partly Cloudy
4:56 AM 82.9 °F 83.7 °F 62.1 °F 49% 29.76 in 10.0 mi South 10.4 mph - N/A   Partly Cloudy
5:56 AM 82.9 °F 82.8 °F 59.0 °F 44% 29.77 in 10.0 mi SSW 5.8 mph - N/A   Partly Cloudy
6:56 AM 84.0 °F 84.0 °F 60.1 °F 44% 29.80 in 10.0 mi South 8.1 mph - N/A   Scattered Clouds
7:56 AM 88.0 °F 87.1 °F 59.0 °F 37% 29.81 in 10.0 mi South 5.8 mph - N/A   Scattered Clouds
8:56 AM 90.0 °F 89.1 °F 59.0 °F 35% 29.81 in 10.0 mi Calm Calm - N/A   Mostly Cloudy
9:23 AM 91.4 °F 90.7 °F 59.0 °F 34% 29.90 in 10.0 mi Calm Calm - N/A   Scattered Clouds
9:56 AM 93.0 °F 92.0 °F 57.9 °F 31% 29.82 in 10.0 mi South 3.5 mph - N/A   Scattered Clouds
10:56 AM 96.1 °F 94.8 °F 57.0 °F 27% 29.81 in 10.0 mi South 4.6 mph - N/A   Scattered Clouds
11:56 AM 100.0 °F 98.8 °F 55.9 °F 23% 29.79 in 10.0 mi Calm Calm - N/A   Scattered Clouds
12:56 PM 100.0 °F 98.3 °F 55.0 °F 22% 29.77 in 10.0 mi SSW 6.9 mph - N/A   Scattered Clouds
1:56 PM 102.9 °F 101.4 °F 55.0 °F 20% 29.75 in 10.0 mi SE 6.9 mph - N/A   Scattered Clouds
2:56 PM 102.9 °F 100.9 °F 53.1 °F 19% 29.72 in 10.0 mi South 8.1 mph - N/A   Scattered Clouds
3:56 PM 104.0 °F - 52.0 °F 18% 29.69 in 10.0 mi South 8.1 mph 16.1 mph N/A   Scattered Clouds
4:56 PM 102.9 °F - 50.0 °F 17% 29.67 in 10.0 mi SW 4.6 mph - N/A   Scattered Clouds
5:56 PM 104.0 °F - 48.0 °F 15% 29.64 in 10.0 mi South 10.4 mph - N/A   Scattered Clouds
6:56 PM 104.0 °F - 50.0 °F 16% 29.65 in 10.0 mi SW 10.4 mph - N/A   Scattered Clouds
7:56 PM 102.9 °F - 48.9 °F 16% 29.66 in 10.0 mi WSW 13.8 mph - N/A   Scattered Clouds
8:56 PM 100.9 °F - 48.0 °F 17% 29.68 in 10.0 mi SSW 10.4 mph - N/A   Scattered Clouds
9:56 PM 98.1 °F - 48.9 °F 19% 29.69 in 10.0 mi SSW 12.7 mph - N/A   Partly Cloudy
10:56 PM 97.0 °F - 48.9 °F 19% 29.70 in 10.0 mi SSW 9.2 mph - N/A   Scattered Clouds
11:56 PM 96.1 °F - 48.9 °F 20% 29.70 in 10.0 mi SSW 10.4 mph - N/A   Mostly Cloudy